Melilla, Spain

4:24 PM CEST on April 24, 2017 (GMT +0200)
Melilla

Weather History for GEML - December, 2012

Change the Weather History Date:

Monday, December 3, 2012

  Actual Average Record
Temperature  
Mean Temperature 52 °F -  
Max Temperature 60 °F 64 °F 73 °F (2004)
Min Temperature 44 °F 53 °F 44 °F (2012)
Degree Days  
Heating Degree Days 13    
Growing Degree Days 2 (Base 50)    
Moisture  
Dew Point 41 °F    
Average Humidity 62    
Maximum Humidity 82    
Minimum Humidity 39    
Precipitation  
Precipitation 0.00 in 0.07 in - ()
Sea Level Pressure  
Sea Level Pressure 30.39 in    
Wind  
Wind Speed 2 mph ()    
Max Wind Speed 7 mph    
Max Gust Speed -    
Visibility 8.2 miles    
Events      
Averages and records for this station are not official NWS values.
T = Trace of Precipitation, MM = Missing Value Source: Averaged Metar Reports

Daily Weather History Graph

Daily Weather History Graph

Search for Another Location

Airport or City:

Trip Planner

Search our weather history database for the weather conditions in past years. The results will help you decide how hot, cold, wet, or windy it might be!

Date:

Astronomy

Dec. 03, 2012 Rise Set
Actual Time 8:04 AM CET 5:59 PM CET
Civil Twilight 7:36 AM CET 6:27 PM CET
Nautical Twilight 7:04 AM CET 6:58 PM CET
Astronomical Twilight 6:33 AM CET 7:29 PM CET
Moon 10:26 PM CET (12/3) 11:24 AM CET (12/3)
Length of Visible Light 10h 51m
Length of Day
9h 55m
Waning Gibbous, 80% of the Moon is Illuminated
Dec 3
Waning Gibbous
Dec 6
Last Quarter
Dec 13
New
Dec 20
First Quarter
Dec 28
Full

Hourly Weather History & Observations

Time (CET) Temp. Windchill Dew Point Humidity Pressure Visibility Wind Dir Wind Speed Gust Speed Precip Events Conditions
6:00 AM 46.4 °F 45.2 °F 39.2 °F 76% 30.36 in - WSW 3.5 mph - N/A   Clear
6:30 AM 44.6 °F - 39.2 °F 81% 30.36 in - Calm Calm - N/A   Clear
7:00 AM 45 °F - 38 °F 70% 30.38 in 19 mi Calm Calm - -  
7:00 AM 44.6 °F - 37.4 °F 76% 30.36 in - Calm Calm - N/A   Clear
7:30 AM 44.6 °F - 37.4 °F 76% 30.36 in - Variable 2.3 mph - N/A   Clear
8:30 AM 44.6 °F - 39.2 °F 81% 30.39 in 6.2 mi Calm Calm - N/A   Partly Cloudy
9:00 AM 46.4 °F - 41.0 °F 81% 30.39 in 6.2 mi Calm Calm - N/A   Partly Cloudy
9:30 AM 48.2 °F - 42.8 °F 82% 30.39 in 6.2 mi Variable 1.2 mph - N/A   Partly Cloudy
10:00 AM 51.8 °F - 44.6 °F 76% 30.39 in 6.2 mi Calm Calm - N/A   Partly Cloudy
10:30 AM 57.2 °F - 44.6 °F 63% 30.42 in 6.2 mi SW 3.5 mph - N/A   Partly Cloudy
11:00 AM 57.2 °F - 44.6 °F 63% 30.42 in 6.2 mi WSW 6.9 mph - N/A   Partly Cloudy
11:30 AM 59.0 °F - 44.6 °F 59% 30.42 in 6.2 mi WSW 6.9 mph - N/A   Partly Cloudy
12:00 PM - - - N/A% 30.42 in 6.2 mi WSW 6.9 mph - N/A   Partly Cloudy
12:30 PM 59.0 °F - 42.8 °F 55% 30.42 in 6.2 mi West 5.8 mph - N/A   Partly Cloudy
1:00 PM 59 °F - 41 °F 39% 30.42 in 19 mi West 3.5 mph - -   Scattered Clouds
1:00 PM 59.0 °F - 42.8 °F 55% 30.42 in 6.2 mi West 3.5 mph - N/A   Partly Cloudy
1:30 PM 60.8 °F - 42.8 °F 52% 30.39 in 6.2 mi West 5.8 mph - N/A   Partly Cloudy
2:00 PM 59.0 °F - 42.8 °F 55% 30.39 in 6.2 mi WNW 3.5 mph - N/A   Partly Cloudy
2:30 PM 59.0 °F - 39.2 °F 48% 30.39 in 6.2 mi WNW 6.9 mph - N/A   Partly Cloudy
3:00 PM 59.0 °F - 39.2 °F 48% 30.39 in 6.2 mi West 4.6 mph - N/A   Partly Cloudy
3:30 PM 59.0 °F - 39.2 °F 48% 30.36 in 6.2 mi West 3.5 mph - N/A   Partly Cloudy
4:00 PM 59.0 °F - 41.0 °F 51% 30.36 in 6.2 mi West 4.6 mph - N/A   Partly Cloudy
4:30 PM 59.0 °F - 39.2 °F 48% 30.36 in - West 3.5 mph - N/A   Clear
5:00 PM 59.0 °F - 37.4 °F 45% 30.36 in - West 3.5 mph - N/A   Clear
5:30 PM 57.2 °F - 39.2 °F 51% 30.36 in - Variable 2.3 mph - N/A   Clear
6:00 PM 55.4 °F - 42.8 °F 63% 30.36 in - SW 1.2 mph - N/A   Clear
6:30 PM 51.8 °F - 41.0 °F 67% 30.36 in - SW 2.3 mph - N/A   Clear
7:00 PM 52 °F - 39 °F 49% 30.39 in 19 mi SW 2.3 mph - -  
7:00 PM 51.8 °F - 39.2 °F 62% 30.39 in - SW 2.3 mph - N/A   Clear
7:30 PM 51.8 °F - 41.0 °F 67% 30.39 in - Variable 2.3 mph - N/A   Clear